STARLINK-32475, 61728

Orbit data source: Space-Track

STARLINK-32475, 61728 is a payload satellite owned by SpaceX/Seattle (US) in LEO that was launched on Wed, 30 Oct 2024 UTC via an FALCON 9 launch vehicle from the Air Force Eastern Test Range (AFETR). Payload-class satellites include a variety of spacecraft equipped with specific instruments for various scientific and technological missions. These include communications satellites like Starlink; space stations such as the ISS; scientific satellites like the Hubble; Earth observation satellites from companies like Planet Labs, Umbra, and HawkEye 360; GPS; miniature CubeSats for education and research; and military/defense satellites.

Loading next visibility...
Identifier
61728, 2024-196X
Orbit
LEO
Last TLE update
4 hours ago
Origin
Manufacturer
SpaceX/Seattle
Mission
Operational Commercial Communications
Bus & Motor
STARLINK V2M, Unknown motor
Mass
730 kg wet, ~700 kg dry
Launch date (UTC)
2024-10-30 (8 months ago)
Launch vehicle
FALCON 9
Launch site
Air Force Eastern Test Range (AFETR)
Object type
Payload
Rocket body
Debris
Shape & HBR
Box + 2 Pan, 29 m
Radar Cross Section
36.964 m², Large (>1 m²)

Expand to show TLE details & history

TLE from 4 hours ago
0 STARLINK-32475
1 61728U 24196X   25189.19018620  .00004060  00000-0  14922-3 0  9999
2 61728  53.1591 156.9384 0000947  48.3216 311.7866 15.30181761 39580
Epoch: 2025-07-08T04:33Z
TLE epoch observation values (Epoch: 2025-07-08T04:33:52.087Z)
Latitude
-0.00001°
Longitude
162.08264°
Altitude
475.737 km
Speed
7.629 km/s
True Right ascension
10h 27m 45s
True Declination
0° 00' 00"
Sunlit
Object was in daylight at epoch
Visualization orbit readout
Latitude
-27.45733°
Longitude
4.07219°
Altitude
484.069 km
Speed
7.623 km/s
Apparent Right ascension
03h 24m 52s
Apparent Declination
-57° 29' 32"
Sunlit
Object is in full shadow
Visualization observer readout
Local Sidereal Time
20:43:50
Azimuth
137.907° SSE
Elevation
-37.917°
Doppler factor
1
Orbital elements
Apogee altitude
476.175 km
Perigee altitude
474.877 km
Semi-major axis
6,853.663 km
Eccentricity
0.00009
Inclination
53.1591°
RAAN
156.9384°
Arg. of periapsis
48.3216°
True anomaly
Unknown
Mean anomaly
311.7866°
Eccentric anomaly
Unknown
Mean motion
3.82524 °/min
Orbital period
94.11 mins
BSTAR
0.00014922
Loading maneuver chart data...
Loading SW <> Apogee altitude chart data...
Loading historical data...
Loading historical data...
Loading historical data...
Loading historical data...
Loading historical data...
Loading historical data...
Loading historical data...

STARLINK-32475 Visibility forecast

Observer location: undefined°, undefined°

Span
Click to sort rows by Start time (UTC) header in descending order
Start Az.
Max El. time (UTC)
Max El. Az.
Max El.
End time (UTC)
End Az.
4 mins2025-07-08 23:32:05.588Z169.803° S2025-07-08 23:34:05.588Z129.423° SE19.646°2025-07-08 23:36:05.588Z88.893° E
5 mins2025-07-09 01:10:05.588Z266.279° W2025-07-09 01:12:05.588Z342.087° N34.827°2025-07-09 01:15:05.588Z38.813° NE
4 mins2025-07-09 06:07:05.588Z349.691° N2025-07-09 06:09:05.588Z38.424° NE21.875°2025-07-09 06:11:05.588Z76.764° E
5 mins2025-07-09 07:45:05.588Z288.052° WNW2025-07-09 07:47:05.588Z203.116° SW37.352°2025-07-09 07:50:05.588Z148.76° SSE
|